Weather Roundup
Issued by NWS Chicago, IL

Home | Current Version | Previous Version | Graphics & Text | Print | Product List | Glossary On
Versions: 1 2 3 4 5 6 7 8 9 10 11 12 13 14 15 16 17 18 19 20 21 22 23 24 25 26 27 28 29 30 31 32 33 34 35 36 37 38 39 40 41 42 43 44 45 46 47 48 49 50
000
NZUS59 KLOT 021808
HRRLOT

CHICAGO AREA WEATHER ROUNDUP
NATIONAL WEATHER SERVICE CHICAGO/ROMEOVILLE IL
100 PM CDT MON MAY 02 2016

NOTE: "FAIR" INDICATES FEW OR NO CLOUDS BELOW 12,000 FEET WITH NO
SIGNIFICANT WEATHER AND/OR OBSTRUCTIONS TO VISIBILITY.

* THESE STATIONS ARE NOT UNDER NWS QUALITY CONTROL. THEY ALSO MAY NOT
  REPORT WEATHER SUCH AS PRECIPITATION OR FOG.

ILZ005-006-012>014-019>023-021900-
NORTHEAST ILLINOIS

CITY           SKY/WX    TMP DP  RH WIND       PRES   REMARKS
OHARE          PTSUNNY   56  35  45 NE15      30.05S
6HR MIN TEMP:  45; 6HR MAX TEMP:  57;

MIDWAY         MOSUNNY   56  35  45 NE17G23   30.05S
6HR MIN TEMP:  47; 6HR MAX TEMP:  57;

AURORA         SUNNY     58  38  47 NE17      30.06S
6HR MIN TEMP:  47; 6HR MAX TEMP:  60;

LANSING*       SUNNY     52  41  64 N10G17    30.05S
JOLIET*        SUNNY     60  38  45 NE14G21   30.05R
WAUKEGAN       SUNNY     55  38  52 NE13      30.05F
6HR MIN TEMP:  44; 6HR MAX TEMP:  56;

DUPAGE AIRPORT SUNNY     58  36  43 NE18      30.04F
6HR MIN TEMP:  45; 6HR MAX TEMP:  58;

WHEELING       SUNNY     55  35  47 NE13G20   30.07R
6HR MIN TEMP:  45; 6HR MAX TEMP:  56;

KANKAKEE*      PTSUNNY   57  43  61 NE10      30.05R
MORRIS*        SUNNY     59  40  49 NE7       30.04S
LEWIS AIRPORT* SUNNY     58  36  44 NE13G22   30.05S
$$

WIZ051-052-058>065-066-070>072-021900-
SOUTHEAST WISCONSIN

CITY           SKY/WX    TMP DP  RH WIND       PRES   REMARKS
MILWAUKEE      PTSUNNY   52  38  58 N9        30.07F
6HR MIN TEMP:  44; 6HR MAX TEMP:  53;

KENOSHA*       MOSUNNY   59  38  45 NE14G20   30.06S
RACINE*        MOSUNNY   53  38  56 N14       30.08F
BURLINGTON     CLOUDY    58  32  38 NE13G22   30.06S
WAUKESHA       PTSUNNY   57  36  44 NE9G17    30.06F
WEST BEND      CLOUDY    59  32  36 NE12      30.05F
$$

INZ001>003-010>013-019-020-021900-
NORTHWEST INDIANA

CITY           SKY/WX    TMP DP  RH WIND       PRES   REMARKS
GARY*          MOSUNNY   52  45  76 N16       30.07R
MICHIGAN CITY* NOT AVBL
RENSSELAER*    NOT AVBL
VALPARAISO     CLOUDY    52  44  74 NE7       30.04S
$$

LMZ740>746-021900-
SOUTHERN LAKE MICHIGAN

STATION/POSITION TIME  SKY/WX   TEMP WIND        PRES    VSBY
                                AIR  DIR/SP/G
                 (UTC)          (F)  (DEG/KT/KT) (MB)    (MI)
HARRISON CRIB    1700            45  350/ 13/ 14   N/A
BURNHAM HARBOR   1800            49  350/ 11/ 13   N/A
CALUMET HARBOR   1700            47  340/ 11/ 15 1017.3R
BURNS HARBOR     1725            45  360/ 12/ 16 1018.3R
MICHIGAN CITY    1700            44  350/ 14/ 15   N/A
$$

ABBREVIATIONS USED IN REMARKS
   TC - TEMPERATURE IN CELSIUS
  WCI - WIND CHILL INDEX
   HX - HEAT INDEX
  VSB - VISIBILITY
$$




USA.gov is the U.S. government's official web portal to all federal, state and local government web resources and services.